Home   Weather   Antsirabe   Past weeks

Flag for Madagascar Past Weather in Antsirabe, Madagascar — Yesterday and Last 2 Weeks

Now
63 °F

Passing clouds.


Feels Like: 63 °F
Forecast: 54 / 65 °F
Wind: 12 mph from Southeast

Location: Antananarivo / Ivato

Current Time: Apr 29, 2017 at 7:06:15 pm

Latest Report: Apr 29, 2017 at 6:30 pm


Visibility: N/A

Pressure: 30.24 "Hg (25.32 "Hg at 1507m altitude)

Humidity: 100%

Dew Point: 63 °F

Location of AntsirabeLocation

Past Weather in Antsirabe — Graph

°F

Antsirabe Temperature Yesterday

Maximum temperature yesterday: 73 °F (at 12:00 pm)
Minimum temperature yesterday: 57 °F (at 5:00 am)
Average temperature yesterday: 65 °F

High & Low Weather Summary for the Past Weeks

 TemperatureHumidityPressure
High82 °F (Apr 16, 3:00 pm)100% (Apr 14, 6:30 pm)30.30 "Hg (Apr 14, 6:30 pm)
Low52 °F (Apr 23, 3:30 am)26% (Apr 16, 2:00 pm)30.01 "Hg (Apr 17, 3:00 pm)
Average67 °F88%30.13 "Hg
* Reported Apr 14 6:00 pm — Apr 29 6:00 pm, Antsirabe, Weather by CustomWeather, © 2017

Note: Actual official high and low records may vary slightly from our data, if they occured in-between our weather recording intervals... More about our weather records

Advertising

Antsirabe Weather History for the Previous 24 Hours

Scroll right to see more
 ConditionsComfort  
Time TempWeatherWind HumidityBarometerVisibility
6:00 pm
Sat, Apr 29
64 °FPassing clouds.15 mph94%30.24 "HgN/A
5:30 pm64 °FPassing clouds.8 mph94%30.24 "HgN/A
5:00 pm64 °FPartly sunny.10 mph88%30.24 "HgN/A
4:30 pm66 °FBroken clouds.12 mph88%30.24 "HgN/A
3:30 pm68 °FScattered clouds.12 mph88%30.21 "HgN/A
3:00 pm68 °FScattered clouds.13 mph83%30.21 "HgN/A
2:30 pm70 °FScattered clouds.10 mph88%30.21 "HgN/A
2:00 pm68 °FPartly sunny.14 mph94%30.24 "HgN/A
1:30 pm68 °FPartly sunny.15 mph88%30.24 "HgN/A
1:00 pm66 °FPartly sunny.15 mph94%30.24 "HgN/A
12:30 pm66 °FScattered clouds.12 mph94%30.24 "HgN/A
12:00 pm64 °FBroken clouds.10 mph100%30.24 "HgN/A
11:30 am66 °FBroken clouds.14 mph94%30.27 "HgN/A
10:30 am66 °FBroken clouds.14 mph88%30.27 "HgN/A
10:00 am66 °FBroken clouds.15 mph88%30.27 "HgN/A
9:30 am66 °FBroken clouds.15 mph94%30.30 "HgN/A
9:00 am66 °FBroken clouds.13 mph94%30.30 "HgN/A
8:30 am64 °FScattered clouds.15 mph94%30.27 "HgN/A
8:00 am63 °FScattered clouds.14 mph100%30.27 "HgN/A
7:30 am63 °FScattered clouds.10 mph100%30.27 "HgN/A
7:00 am63 °FScattered clouds.9 mph100%30.27 "HgN/A
6:30 am61 °FPartly sunny.9 mph83%30.27 "HgN/A
6:00 am61 °FPassing clouds.10 mph94%30.27 "HgN/A
5:30 am59 °FPassing clouds.8 mph100%30.27 "HgN/A
5:00 am61 °FPassing clouds.8 mph94%30.24 "HgN/A
4:00 am59 °FPassing clouds.No wind100%30.24 "HgN/A
3:30 am59 °FPassing clouds.6 mph100%30.27 "HgN/A
3:00 am59 °FPassing clouds.12 mph100%30.24 "HgN/A
2:30 am61 °FPassing clouds.10 mph100%30.24 "HgN/A
2:00 am61 °FPassing clouds.13 mph100%30.27 "HgN/A
1:30 am61 °FPassing clouds.15 mph100%30.27 "HgN/A
1:00 am61 °FPassing clouds.9 mph100%30.27 "HgN/A
12:30 am61 °FPassing clouds.6 mph100%30.27 "HgN/A
12:00 am59 °FPassing clouds.2 mph100%30.30 "HgN/A
11:30 pm
Fri, Apr 28
61 °FPassing clouds.8 mph100%30.30 "HgN/A
11:00 pm61 °FPassing clouds.10 mph100%30.30 "HgN/A
10:30 pm61 °FPassing clouds.15 mph100%30.30 "HgN/A
10:00 pm61 °FPassing clouds.12 mph100%30.30 "HgN/A
9:30 pm63 °FPassing clouds.10 mph100%30.30 "HgN/A
9:00 pm63 °FPassing clouds.12 mph100%30.30 "HgN/A
8:30 pm63 °FThundershowers. Passing clouds.2 mph100%30.30 "HgN/A
8:00 pm61 °FThundershowers. Passing clouds.2 mph100%30.27 "HgN/A
7:30 pm61 °FThundershowers. Passing clouds.8 mph100%30.27 "HgN/A
7:00 pm63 °FThundershowers. Passing clouds.10 mph94%30.27 "HgN/A
Weather by CustomWeather, © 2017

See weather overviewHow to use our weather pages